When you browse on this site, cookies collect data to enhance your experience and personalize the content and advertising you see.
Visit our Privacy Policy to learn more. By continuing to use the site, you agree to this use of cookies and data.
EN

Hourly Weather Soma Bey

Today, 13 July, Monday

Time Temperature Precipitation Wind Pressure Humidity
00:00 +32°C° 0 mm 4 mps 741 mmHg 22%
01:00 +30°C° 0 mm 4 mps 740 mmHg 22%
02:00 +29°C° 0 mm 4 mps 740 mmHg 22%
03:00 +28°C° 0 mm 4 mps 740 mmHg 25%
04:00 +27°C° 0 mm 3 mps 740 mmHg 27%
05:00 +26°C° 0 mm 3 mps 741 mmHg 29%
06:00 +29°C° 0 mm 4 mps 741 mmHg 26%
07:00 +33°C° 0 mm 4 mps 741 mmHg 23%
08:00 +36°C° 0 mm 5 mps 741 mmHg 20%
09:00 +37°C° 0 mm 5 mps 741 mmHg 18%
10:00 +40°C° 0 mm 6 mps 741 mmHg 17%
11:00 +41°C° 0 mm 6 mps 740 mmHg 15%
12:00 +41°C° 0 mm 6 mps 740 mmHg 16%
13:00 +41°C° 0 mm 6 mps 740 mmHg 17%
14:00 +41°C° 0 mm 6 mps 740 mmHg 19%
15:00 +40°C° 0 mm 5 mps 740 mmHg 20%
16:00 +40°C° 0 mm 5 mps 740 mmHg 21%
17:00 +38°C° 0 mm 4 mps 739 mmHg 23%
18:00 +35°C° 0 mm 4 mps 740 mmHg 28%
19:00 +33°C° 0 mm 3 mps 740 mmHg 33%
20:00 +29°C° 0 mm 2 mps 740 mmHg 39%
21:00 +29°C° 0 mm 2 mps 740 mmHg 37%
22:00 +29°C° 0 mm 2 mps 740 mmHg 35%
23:00 +29°C° 0 mm 1 mps 741 mmHg 34%

Tomorrow, 14 July, Tuesday

Time Temperature Precipitation Wind Pressure Humidity
00:00 +29°C° 0 mm 2 mps 741 mmHg 33%
01:00 +29°C° 0 mm 2 mps 741 mmHg 32%
02:00 +29°C° 0 mm 2 mps 740 mmHg 31%
03:00 +28°C° 0 mm 2 mps 741 mmHg 33%
04:00 +27°C° 0 mm 2 mps 741 mmHg 35%
05:00 +26°C° 0 mm 3 mps 742 mmHg 37%
06:00 +29°C° 0 mm 3 mps 742 mmHg 33%
07:00 +33°C° 0 mm 4 mps 742 mmHg 30%
08:00 +35°C° 0 mm 4 mps 743 mmHg 26%
09:00 +37°C° 0 mm 5 mps 743 mmHg 24%
10:00 +39°C° 0 mm 5 mps 743 mmHg 22%
11:00 +40°C° 0 mm 6 mps 743 mmHg 20%
12:00 +40°C° 0 mm 5 mps 743 mmHg 20%
13:00 +40°C° 0 mm 5 mps 742 mmHg 21%
14:00 +41°C° 0 mm 5 mps 742 mmHg 21%
15:00 +40°C° 0 mm 4 mps 742 mmHg 22%
16:00 +39°C° 0 mm 3 mps 742 mmHg 22%
17:00 +38°C° 0 mm 2 mps 742 mmHg 22%
18:00 +36°C° 0 mm 2 mps 742 mmHg 27%
19:00 +34°C° 0 mm 2 mps 742 mmHg 31%
20:00 +30°C° 0 mm 1 mps 742 mmHg 36%
21:00 +30°C° 0 mm 1 mps 743 mmHg 36%
22:00 +29°C° 0 mm 1 mps 743 mmHg 36%
23:00 +27°C° 0 mm 0 mps 743 mmHg 36%

Day after tomorrow, 15 July, Wednesday

Time Temperature Precipitation Wind Pressure Humidity
00:00 +26°C° 0 mm 0 mps 743 mmHg 35%
01:00 +28°C° 0 mm 1 mps 743 mmHg 34%
02:00 +28°C° 0 mm 1 mps 743 mmHg 34%
03:00 +28°C° 0 mm 1 mps 743 mmHg 35%
04:00 +27°C° 0 mm 2 mps 743 mmHg 36%
05:00 +27°C° 0 mm 2 mps 744 mmHg 37%
06:00 +30°C° 0 mm 2 mps 744 mmHg 33%
07:00 +33°C° 0 mm 3 mps 744 mmHg 28%
08:00 +36°C° 0 mm 3 mps 745 mmHg 24%
09:00 +37°C° 0 mm 4 mps 745 mmHg 23%
10:00 +40°C° 0 mm 5 mps 745 mmHg 23%
11:00 +41°C° 0 mm 5 mps 745 mmHg 23%
12:00 +41°C° 0 mm 5 mps 744 mmHg 23%
13:00 +41°C° 0 mm 5 mps 744 mmHg 24%
14:00 +41°C° 0 mm 4 mps 743 mmHg 25%
15:00 +41°C° 0 mm 4 mps 743 mmHg 23%
16:00 +42°C° 0 mm 4 mps 743 mmHg 21%
17:00 +42°C° 0 mm 3 mps 742 mmHg 19%
18:00 +38°C° 0 mm 3 mps 742 mmHg 23%
19:00 +36°C° 0 mm 2 mps 743 mmHg 26%
20:00 +32°C° 0 mm 2 mps 743 mmHg 29%
21:00 +32°C° 0 mm 2 mps 743 mmHg 29%
22:00 +31°C° 0 mm 2 mps 743 mmHg 29%
23:00 +31°C° 0 mm 2 mps 743 mmHg 30%

16 July, Thursday

Time Temperature Precipitation Wind Pressure Humidity
00:00 +31°C° 0 mm 3 mps 743 mmHg 32%
01:00 +30°C° 0 mm 4 mps 742 mmHg 34%
02:00 +30°C° 0 mm 5 mps 742 mmHg 36%
03:00 +30°C° 0 mm 5 mps 742 mmHg 37%
04:00 +29°C° 0 mm 4 mps 742 mmHg 38%
05:00 +29°C° 0 mm 4 mps 742 mmHg 40%
06:00 +32°C° 0 mm 4 mps 742 mmHg 34%
07:00 +35°C° 0 mm 5 mps 742 mmHg 27%
08:00 +39°C° 0 mm 5 mps 742 mmHg 21%
09:00 +40°C° 0 mm 6 mps 742 mmHg 21%
10:00 +41°C° 0 mm 6 mps 742 mmHg 21%
11:00 +43°C° 0 mm 7 mps 742 mmHg 22%
12:00 +43°C° 0 mm 7 mps 741 mmHg 22%
13:00 +44°C° 0 mm 7 mps 741 mmHg 22%
14:00 +44°C° 0 mm 8 mps 740 mmHg 22%
15:00 +44°C° 0 mm 7 mps 740 mmHg 22%
16:00 +43°C° 0 mm 7 mps 740 mmHg 22%
17:00 +43°C° 0 mm 7 mps 740 mmHg 22%
18:00 +40°C° 0 mm 6 mps 740 mmHg 24%
19:00 +37°C° 0 mm 5 mps 740 mmHg 25%
20:00 +35°C° 0 mm 4 mps 740 mmHg 27%
21:00 +35°C° 0 mm 4 mps 740 mmHg 28%
22:00 +34°C° 0 mm 4 mps 740 mmHg 28%
23:00 +34°C° 0 mm 4 mps 741 mmHg 28%

17 July, Friday

Time Temperature Precipitation Wind Pressure Humidity
00:00 +33°C° 0 mm 4 mps 740 mmHg 30%
01:00 +32°C° 0 mm 4 mps 740 mmHg 32%
02:00 +29°C° 0 mm 4 mps 740 mmHg 33%
03:00 +29°C° 0 mm 4 mps 740 mmHg 35%
04:00 +28°C° 0 mm 4 mps 740 mmHg 36%
05:00 +28°C° 0 mm 4 mps 740 mmHg 38%
06:00 +30°C° 0 mm 5 mps 741 mmHg 34%
07:00 +34°C° 0 mm 5 mps 741 mmHg 31%
08:00 +36°C° 0 mm 6 mps 741 mmHg 28%
09:00 +38°C° 0 mm 6 mps 741 mmHg 27%
10:00 +39°C° 0 mm 6 mps 741 mmHg 25%
11:00 +40°C° 0 mm 7 mps 741 mmHg 24%
12:00 +40°C° 0 mm 6 mps 741 mmHg 25%
13:00 +41°C° 0 mm 6 mps 740 mmHg 26%
14:00 +41°C° 0 mm 6 mps 740 mmHg 27%
15:00 +40°C° 0 mm 5 mps 740 mmHg 27%
16:00 +40°C° 0 mm 5 mps 740 mmHg 27%
17:00 +40°C° 0 mm 4 mps 740 mmHg 27%
18:00 +36°C° 0 mm 3 mps 740 mmHg 31%
19:00 +34°C° 0 mm 2 mps 740 mmHg 35%
20:00 +31°C° 0 mm 1 mps 741 mmHg 39%
21:00 +31°C° 0 mm 1 mps 741 mmHg 38%
22:00 +30°C° 0 mm 2 mps 741 mmHg 37%
23:00 +30°C° 0 mm 2 mps 741 mmHg 36%

18 July, Saturday

Time Temperature Precipitation Wind Pressure Humidity
00:00 +30°C° 0 mm 2 mps 741 mmHg 36%
01:00 +29°C° 0 mm 3 mps 741 mmHg 35%
02:00 +29°C° 0 mm 3 mps 741 mmHg 34%
03:00 +29°C° 0 mm 4 mps 741 mmHg 39%
04:00 +28°C° 0 mm 4 mps 741 mmHg 43%
05:00 +27°C° 0 mm 5 mps 742 mmHg 47%
06:00 +30°C° 0 mm 6 mps 742 mmHg 43%
07:00 +33°C° 0 mm 6 mps 742 mmHg 38%
08:00 +35°C° 0 mm 7 mps 743 mmHg 33%
09:00 +36°C° 0 mm 6 mps 742 mmHg 32%
10:00 +38°C° 0 mm 6 mps 742 mmHg 30%
11:00 +39°C° 0 mm 6 mps 742 mmHg 28%
12:00 +39°C° 0 mm 5 mps 742 mmHg 29%
13:00 +39°C° 0 mm 5 mps 741 mmHg 29%
14:00 +39°C° 0 mm 5 mps 741 mmHg 30%
15:00 +38°C° 0 mm 4 mps 741 mmHg 29%
16:00 +38°C° 0 mm 3 mps 741 mmHg 29%
17:00 +37°C° 0 mm 3 mps 741 mmHg 29%
18:00 +35°C° 0 mm 2 mps 741 mmHg 33%
19:00 +32°C° 0 mm 2 mps 741 mmHg 38%
20:00 +31°C° 0 mm 2 mps 742 mmHg 43%
21:00 +30°C° 0 mm 1 mps 742 mmHg 44%
22:00 +29°C° 0 mm 1 mps 742 mmHg 45%
23:00 +27°C° 0 mm 0 mps 742 mmHg 47%
Show more